This demonstration page uses our WeatherBlox Daily Observations layout. Learn more.

Left ArrowRight Arrow

53.62937, 11.41316

Hourly Observations for April 18, 2021

Temp ( °F °C ) Dew Point ( °F °C ) Humidity (%) Winds ( mph kmh ) Pressure ( in mb ) Visibility ( mi km ) Precip ( " mm )
7:50 am 07:50 Mostly Sunny 43 6 39 4 87 87 ENE 5 7 30.18 1022 7 11 N/A
8:20 am 08:20 Mostly Sunny 45 7 39 4 81 81 NE 8 13 30.18 1022 7 11 N/A
8:50 am 08:50 Mostly Sunny 46 8 39 4 76 76 NE 9 15 30.18 1022 7 11 N/A
9:20 am 09:20 Mostly Sunny 48 9 41 5 76 76 NE 8 13 30.18 1022 7 11 N/A
9:50 am 09:50 Mostly Sunny 48 9 41 5 76 76 NE 7 11 30.18 1022 7 11 N/A
10:20 am 10:20 Mostly Sunny 48 9 39 4 71 71 NNE 10 17 30.18 1022 7 11 N/A
10:50 am 10:50 Mostly Sunny 50 10 39 4 67 67 NNE 12 19 30.18 1022 7 11 N/A
11:20 am 11:20 Mostly Sunny 50 10 39 4 67 67 NNE 12 19 30.18 1022 7 11 N/A
11:50 am 11:50 Mostly Sunny 52 11 41 5 67 67 NE 8 13 30.18 1022 7 11 N/A
12:20 pm 12:20 Mostly Sunny 52 11 41 5 67 67 NNE 9 15 30.18 1022 7 11 N/A
12:50 pm 12:50 Mostly Sunny 50 10 41 5 71 71 NNE 10 17 30.18 1022 7 11 N/A
1:20 pm 13:20 Mostly Sunny 52 11 41 5 67 67 ENE 9 15 30.18 1022 7 11 N/A
1:50 pm 13:50 Mostly Sunny 54 12 41 5 63 63 NE 7 11 30.18 1022 7 11 N/A
2:20 pm 14:20 Mostly Sunny 54 12 41 5 63 63 NE 9 15 30.18 1022 7 11 N/A
2:50 pm 14:50 Mostly Sunny 54 12 43 6 67 67 NE 10 17 30.18 1022 7 11 N/A
3:20 pm 15:20 Mostly Sunny 54 12 41 5 63 63 NNE 10 17 30.18 1022 7 11 N/A
3:50 pm 15:50 Mostly Sunny 50 10 39 4 67 67 NE 12 19 30.18 1022 7 11 N/A
4:20 pm 16:20 Mostly Sunny 52 11 41 5 67 67 NE 9 15 30.18 1022 7 11 N/A
4:50 pm 16:50 Mostly Sunny 54 12 39 4 58 58 N 9 15 30.15 1021 7 11 N/A
5:20 pm 17:20 Mostly Sunny 52 11 39 4 62 62 NNE 9 15 30.15 1021 7 11 N/A
5:50 pm 17:50 Mostly Sunny 50 10 37 3 62 62 NNE 13 20 30.15 1021 7 11 N/A
6:20 pm 18:20 Mostly Sunny 48 9 39 4 71 71 NE 12 19 30.18 1022 7 11 N/A
6:50 pm 18:50 Mostly Sunny 48 9 39 4 71 71 NNE 8 13 30.18 1022 7 11 N/A
7:20 pm 19:20 Mostly Sunny 48 9 37 3 66 66 NNE 10 17 30.18 1022 7 11 N/A
7:50 pm 19:50 Mostly Sunny 46 8 37 3 71 71 NNE 8 13 30.18 1022 30 48 N/A
8:20 pm 20:20 Partly Cloudy with Light Rain 46 8 39 4 76 76 ENE 10 17 30.18 1022 30 48 N/A
8:50 pm 20:50 Mostly Clear with Light Rain 45 7 41 5 87 87 NE 7 11 30.18 1022 30 48 N/A
9:20 pm 21:20 Mostly Clear with Light Rain 45 7 41 5 87 87 NNE 3 6 30.18 1022 30 48 N/A
9:50 pm 21:50 Mostly Clear with Drizzle 45 7 41 5 87 87 N 7 11 30.18 1022 30 48 N/A

Powered by AerisWeather